Location: Campestrin
(46.4667°N, 11.7167°E)
Time: 04:02:32
(UTC+00:00)

Cosmos 1844 Rocket - Pass Details

Date: 18 April 2021
Orbit: 825 x 844 km, 71.0° (Epoch: 16 May)

Event Time Altitude Azimuth Distance (km) Brightness Sun altitude
Exits shadow 23:39:36 47° 47° (NE) 1,081 3.4 -32.0°
Drops below altitude 10° 23:43:37 10° 31° (NNE) 2,436 5.8 -31.9°
Sets 23:46:04 0° 29° (NNE) 3,375 6.8 -31.9°
